WD8LSN Weather Reports


time (UTC)temp
C
wind
direction
speed
KPH
gust
KPH
rain 1hr
cm
rain 24hr
cm
rain mn
cm
humidity
%
barometer
mb
20260505004550 21 195 1.6 14.5 0.00 0.00 0.00 59 1008.0
20260505003046 21 162 3.2 8.0 0.00 0.00 0.00 58 1008.0
20260505001549 22 321 1.6 16.1 0.00 0.00 0.00 56 1008.1
20260505000058 22 219 3.2 19.3 0.00 0.00 0.00 55 1008.2
20260504234551 22 209 4.8 20.9 0.00 0.00 0.00 53 1008.2
20260504233054 23 148 4.8 12.9 0.00 0.00 0.00 53 1008.3
20260504231550 23 87 1.6 17.7 0.00 0.00 0.00 54 1008.4
20260504230056 23 239 4.8 12.9 0.00 0.00 0.00 53 1008.5
20260504224546 23 223 3.2 19.3 0.00 0.00 0.00 54 1008.7
20260504223055 23 224 1.6 16.1 0.00 0.00 0.00 56 1008.8
20260504221550 24 224 4.8 12.9 0.00 0.00 0.00 53 1008.7
20260504220053 23 231 3.2 12.9 0.00 0.00 0.00 55 1009.0
20260504214606 23 229 1.6 8.0 0.00 0.00 0.00 55 1009.1
20260504213059 24 205 3.2 11.3 0.00 0.00 0.00 55 1009.2
20260504211552 23 232 6.4 11.3 0.00 0.00 0.00 55 1009.4
20260504210051 23 305 1.6 16.1 0.00 0.00 0.00 55 1009.3
20260504204551 23 297 6.4 17.7 0.00 0.00 0.00 55 1009.5
20260504203053 23 188 4.8 14.5 0.00 0.00 0.00 60 1009.6
20260504201603 23 245 4.8 14.5 0.00 0.00 0.00 61 1010.1
20260504200047 22 210 3.2 17.7 0.00 0.00 0.00 62 1010.4
20260504194552 22 253 4.8 16.1 0.00 0.00 0.00 61 1010.7
20260504193050 21 229 3.2 16.1 0.00 0.00 0.00 64 1010.7
20260504191559 21 282 1.6 12.9 0.00 0.00 0.00 61 1010.6
20260504190115 21 276 8.0 17.7 0.00 0.00 0.00 61 1010.6
20260504184620 20 246 4.8 14.5 0.00 0.00 0.00 63 1010.7
20260504183052 19 221 3.2 16.1 0.00 0.00 0.00 65 1010.7
20260504181551 19 211 4.8 14.5 0.00 0.00 0.00 66 1010.4
20260504180053 19 221 4.8 19.3 0.00 0.00 0.00 67 1010.4
20260504174554 20 212 4.8 20.9 0.00 0.00 0.00 65 1010.9
20260504173054 21 175 1.6 11.3 0.00 0.00 0.00 64 1010.9
20260504171554 20 243 4.8 16.1 0.00 0.00 0.00 63 1011.3
20260504140106 13 222 4.8 17.7 0.00 0.00 0.00 75 1012.4
20260504120108 11 184 3.2 16.1 0.00 0.00 0.00 72 1012.6
20260504081550 10 171 4.8 11.3 0.00 0.00 0.00 68 1013.2
20260504044551 10 162 1.6 6.4 0.00 0.00 0.00 70 1014.9
20260504043051 10 150 1.6 6.4 0.00 0.00 0.00 70 1014.8
20260504041549 10 136 1.6 6.4 0.00 0.00 0.00 71 1015.1
20260504040049 10 158 0.0 4.8 0.00 0.00 0.00 71 1015.2
20260504034546 10 0 0.0 0.0 0.00 0.00 0.00 71 1015.3
20260504033059 10 0 0.0 4.8 0.00 0.00 0.00 71 1015.5
20260504031558 10 131 1.6 3.2 0.00 0.00 0.00 71 1015.2
20260504030051 11 143 0.0 3.2 0.00 0.00 0.00 69 1015.6
20260504024556 11 163 0.0 4.8 0.00 0.00 0.00 66 1015.7
20260504023053 12 194 1.6 14.5 0.00 0.00 0.00 58 1015.7
20260504021551 12 150 1.6 4.8 0.00 0.00 0.00 56 1015.3
20260504020051 12 133 1.6 6.4 0.00 0.00 0.00 54 1015.3
20260504014542 12 140 1.6 4.8 0.00 0.00 0.00 53 1015.3
20260504013049 12 134 0.0 4.8 0.00 0.00 0.00 54 1015.2
20260504011549 12 161 1.6 6.4 0.00 0.00 0.00 52 1015.2